Location: Unspecified
(48.7670°N, 0.0000°E)
Time: 08:44:10
(UTC+00:00)

Transit 2A Rocket - All Passes

Search period start: 26 June 2019 00:00
Search period end: 06 July 2019 00:00
Orbit: 587 x 917 km, 66.7° (Epoch: 24 June)

Date Brightness Start Highest point End Pass type
(mag) Time Alt. Az. Time Alt. Az. Time Alt. Az.
26 Jun - 07:43:56 10° SE 07:47:32 16° ESE 07:51:05 10° ENE daylight
26 Jun - 09:23:17 10° SSW 09:29:24 80° ESE 09:35:17 10° NE daylight
26 Jun - 11:07:26 10° W 11:12:38 29° NW 11:17:38 10° NNE daylight
26 Jun - 12:54:20 10° NW 12:57:09 14° NNW 12:59:54 10° NNE daylight
26 Jun - 14:39:28 10° NNW 14:42:16 14° NNE 14:44:57 10° NE daylight
26 Jun - 16:21:50 10° NNW 16:26:41 32° NE 16:31:07 10° ESE daylight
26 Jun - 18:04:28 10° NW 18:09:36 54° WSW 18:14:14 10° SSE daylight
27 Jun - 08:41:03 10° SSW 08:46:57 53° ESE 08:52:39 10° NE daylight
27 Jun - 10:24:08 10° WSW 10:29:48 39° NW 10:35:13 10° NNE daylight
27 Jun - 12:10:32 10° NW 12:14:00 16° NNW 12:17:22 10° NNE daylight
27 Jun - 13:56:46 10° NNW 13:59:05 12° N 14:01:19 10° NNE daylight
27 Jun - 15:39:26 10° NNW 15:43:47 24° NNE 15:47:50 10° E daylight
27 Jun - 17:21:50 10° NW 17:27:10 87° SW 17:31:57 10° SSE daylight
27 Jun - 19:06:21 10° WNW 19:08:47 14° WSW 19:11:09 10° SW daylight
28 Jun - 07:59:10 10° S 08:04:35 34° ESE 08:09:51 10° NE daylight
28 Jun - 09:41:06 10° SW 09:47:05 56° NW 09:52:47 10° NNE daylight
28 Jun - 11:26:45 10° WNW 11:30:55 19° NNW 11:34:56 10° NNE daylight
28 Jun - 13:13:42 10° NNW 13:15:51 12° N 13:17:57 10° NNE daylight
28 Jun - 14:57:01 10° NNW 15:00:47 18° NNE 15:04:20 10° ENE daylight
28 Jun - 16:39:18 10° NNW 16:44:35 60° NE 16:49:21 10° SE daylight
28 Jun - 18:22:42 10° WNW 18:26:42 23° WSW 18:30:24 10° SSW daylight
29 Jun - 07:17:48 10° SSE 07:22:21 22° ESE 07:26:46 10° ENE daylight
29 Jun - 08:58:20 10° SW 09:04:27 80° NW 09:10:18 10° NE daylight
29 Jun - 10:43:07 10° W 10:47:56 24° NNW 10:52:32 10° NNE daylight
29 Jun - 12:30:14 10° NNW 12:32:38 13° N 12:34:59 10° NNE daylight
29 Jun - 14:14:34 10° NNW 14:17:42 15° NNE 14:20:41 10° NE daylight
29 Jun - 15:56:50 10° NNW 16:01:53 40° NE 16:06:28 10° ESE daylight
29 Jun - 17:39:41 10° NW 17:44:28 38° WSW 17:48:50 10° S daylight
30 Jun - 06:37:20 10° SE 06:40:12 14° ESE 06:43:01 10° ENE daylight
30 Jun - 08:15:53 10° SSW 08:21:56 70° ESE 08:27:45 10° NE daylight
30 Jun - 09:59:41 10° WSW 10:05:02 32° NW 10:10:08 10° NNE daylight
30 Jun - 11:46:28 10° NW 11:49:27 14° NNW 11:52:19 10° NNE daylight
30 Jun - 13:32:00 10° NNW 13:34:32 13° N 13:36:59 10° NE daylight
30 Jun - 15:14:25 10° NNW 15:19:04 28° NE 15:23:20 10° E daylight
30 Jun - 16:56:56 10° NW 17:02:08 64° WSW 17:06:48 10° SSE daylight
01 Jul - 07:33:45 10° S 07:39:31 46° ESE 07:45:04 10° NE daylight
01 Jul - 09:16:28 10° WSW 09:22:14 44° NW 09:27:44 10° NNE daylight
01 Jul - 11:02:39 10° WNW 11:06:19 17° NNW 11:09:50 10° NNE daylight
01 Jul - 12:49:13 10° NNW 12:51:20 12° N 12:53:24 10° NNE daylight
01 Jul - 14:32:00 10° NNW 14:36:07 21° NNE 14:39:57 10° E daylight
01 Jul - 16:14:21 10° NW 16:19:39 80° NE 16:24:24 10° SE daylight
01 Jul - 17:58:23 10° WNW 18:01:26 16° WSW 18:04:20 10° SW daylight
02 Jul - 06:52:02 10° S 06:57:11 30° ESE 07:02:12 10° NE daylight
02 Jul - 08:33:31 10° SW 08:39:33 63° NW 08:45:17 10° NNE daylight
02 Jul - 10:18:54 10° WNW 10:23:16 21° NNW 10:27:26 10° NNE daylight
02 Jul - 12:06:00 10° NNW 12:08:07 12° N 12:10:10 10° NNE daylight
02 Jul - 13:49:36 10° NNW 13:53:05 17° NNE 13:56:23 10° ENE daylight
02 Jul - 15:31:50 10° NNW 15:37:01 51° NE 15:41:42 10° SE daylight
02 Jul - 17:15:01 10° NW 17:19:17 27° WSW 17:23:14 10° SSW daylight
03 Jul - 06:10:53 10° SSE 06:14:58 19° ESE 06:18:58 10° ENE daylight
03 Jul - 07:50:50 10° SSW 07:56:58 89° SE 08:02:47 10° NE daylight
03 Jul - 09:35:19 10° W 09:40:17 26° NW 09:45:02 10° NNE daylight
03 Jul - 11:22:24 10° NW 11:24:54 13° N 11:27:20 10° NNE daylight
03 Jul - 13:07:09 10° NNW 13:09:58 14° NNE 13:12:42 10° NE daylight
03 Jul - 14:49:23 10° NNW 14:54:17 35° NE 14:58:44 10° ESE daylight
03 Jul - 16:32:07 10° NW 16:37:01 45° WSW 16:41:29 10° S daylight
04 Jul - 05:31:07 10° ESE 05:32:51 11° ESE 05:34:35 10° E daylight
04 Jul - 07:08:30 10° SSW 07:14:28 60° ESE 07:20:12 10° NE daylight
04 Jul - 08:51:57 10° WSW 08:57:27 35° NW 09:02:39 10° NNE daylight
04 Jul - 10:38:35 10° NW 10:41:44 15° NNW 10:44:47 10° NNE daylight
04 Jul - 12:24:32 10° NNW 12:26:48 12° N 12:29:00 10° NNE daylight
04 Jul - 14:07:00 10° NNW 14:11:25 25° NE 14:15:30 10° E daylight
04 Jul - 15:49:25 10° NW 15:54:38 75° WSW 15:59:19 10° SSE daylight
04 Jul - 17:34:51 10° W 17:36:06 11° W 17:37:22 10° WSW daylight
05 Jul - 06:26:30 10° S 06:32:05 39° ESE 06:37:28 10° NE daylight
05 Jul - 08:08:49 10° WSW 08:14:41 49° NW 08:20:15 10° NNE daylight
05 Jul - 09:54:46 10° WNW 09:58:37 18° NNW 10:02:20 10° NNE daylight
05 Jul - 11:41:38 10° NNW 11:43:35 12° N 11:45:30 10° NNE daylight
05 Jul - 13:24:36 10° NNW 13:28:26 19° NNE 13:32:03 10° ENE daylight
05 Jul - 15:06:52 10° NNW 15:12:06 69° NE 15:16:49 10° SE daylight
05 Jul - 16:50:32 10° WNW 16:54:03 19° WSW 16:57:21 10° SSW daylight
